Year,Month,Day,Hour,Minute,Value (Times are PST for temperature in C)
2015,07,04,00,00,17.30
2015,07,04,00,01,17.30
2015,07,04,00,02,17.30
2015,07,04,00,03,17.20
2015,07,04,00,04,17.20
2015,07,04,00,05,17.20
2015,07,04,00,06,17.20
2015,07,04,00,07,17.20
2015,07,04,00,08,17.20
2015,07,04,00,09,17.10
2015,07,04,00,10,17.10
2015,07,04,00,11,17.10
2015,07,04,00,12,17.10
2015,07,04,00,13,17.10
2015,07,04,00,14,17.10
2015,07,04,00,15,17.10
2015,07,04,00,16,17.10
2015,07,04,00,17,17.10
2015,07,04,00,18,17.20
2015,07,04,00,19,17.20
2015,07,04,00,20,17.20
2015,07,04,00,21,17.20
2015,07,04,00,22,17.20
2015,07,04,00,23,17.30
2015,07,04,00,24,17.30
2015,07,04,00,25,17.30
2015,07,04,00,26,17.30
2015,07,04,00,27,17.30
2015,07,04,00,28,17.30
2015,07,04,00,29,17.30
2015,07,04,00,30,17.30
2015,07,04,00,31,17.30
2015,07,04,00,32,17.30
2015,07,04,00,33,17.20
2015,07,04,00,34,17.20
2015,07,04,00,35,17.20
2015,07,04,00,36,17.20
2015,07,04,00,37,17.20
2015,07,04,00,38,17.10
2015,07,04,00,39,17.20
2015,07,04,00,40,17.10
2015,07,04,00,41,17.20
2015,07,04,00,42,17.20
2015,07,04,00,43,17.20
2015,07,04,00,44,17.10
2015,07,04,00,45,17.10
2015,07,04,00,46,17.10
2015,07,04,00,47,17.10
2015,07,04,00,48,17.10
2015,07,04,00,49,17.00
2015,07,04,00,50,16.90
2015,07,04,00,51,16.90
2015,07,04,00,52,16.80
2015,07,04,00,53,16.80
2015,07,04,00,54,16.80
2015,07,04,00,55,16.80
2015,07,04,00,56,16.80
2015,07,04,00,57,16.80
2015,07,04,00,58,16.80
2015,07,04,00,59,16.80
2015,07,04,01,00,16.70
2015,07,04,01,01,16.70
2015,07,04,01,02,16.60
2015,07,04,01,03,16.60
2015,07,04,01,04,16.60
2015,07,04,01,05,16.60
2015,07,04,01,06,16.60
2015,07,04,01,07,16.70
2015,07,04,01,08,16.70
2015,07,04,01,09,16.80
2015,07,04,01,10,16.90
2015,07,04,01,11,16.90
2015,07,04,01,12,16.80
2015,07,04,01,13,16.80
2015,07,04,01,14,16.70
2015,07,04,01,15,16.70
2015,07,04,01,16,16.70
2015,07,04,01,17,16.70
2015,07,04,01,18,16.70
2015,07,04,01,19,16.70
2015,07,04,01,20,16.70
2015,07,04,01,21,16.70
2015,07,04,01,22,16.70
2015,07,04,01,23,16.70
2015,07,04,01,24,16.60
2015,07,04,01,25,16.50
2015,07,04,01,26,16.50
2015,07,04,01,27,16.40
2015,07,04,01,28,16.40
2015,07,04,01,29,16.40
2015,07,04,01,30,16.40
2015,07,04,01,31,16.50
2015,07,04,01,32,16.50
2015,07,04,01,33,16.40
2015,07,04,01,34,16.40
2015,07,04,01,35,16.30
2015,07,04,01,36,16.30
2015,07,04,01,37,16.30
2015,07,04,01,38,16.20
2015,07,04,01,39,16.20
2015,07,04,01,40,16.10
2015,07,04,01,41,16.10
2015,07,04,01,42,16.00
2015,07,04,01,43,16.00
2015,07,04,01,44,16.00
2015,07,04,01,45,15.90
2015,07,04,01,46,15.90
2015,07,04,01,47,16.00
2015,07,04,01,48,16.00
2015,07,04,01,49,16.00
2015,07,04,01,50,16.00
2015,07,04,01,51,16.00
2015,07,04,01,52,16.00
2015,07,04,01,53,16.00
2015,07,04,01,54,15.90
2015,07,04,01,55,15.90
2015,07,04,01,56,15.90
2015,07,04,01,57,15.80
2015,07,04,01,58,15.80
2015,07,04,01,59,15.70
2015,07,04,02,00,15.70
2015,07,04,02,01,15.60
2015,07,04,02,02,15.60
2015,07,04,02,03,15.60
2015,07,04,02,04,15.60
2015,07,04,02,05,15.60
2015,07,04,02,06,15.50
2015,07,04,02,07,15.50
2015,07,04,02,08,15.40
2015,07,04,02,09,15.40
2015,07,04,02,10,15.40
2015,07,04,02,11,15.40
2015,07,04,02,12,15.40
2015,07,04,02,13,15.30
2015,07,04,02,14,15.30
2015,07,04,02,15,15.30
2015,07,04,02,16,15.30
2015,07,04,02,17,15.20
2015,07,04,02,18,15.20
2015,07,04,02,19,15.20
2015,07,04,02,20,15.10
2015,07,04,02,21,15.10
2015,07,04,02,22,15.30
2015,07,04,02,23,15.30
2015,07,04,02,24,15.40
2015,07,04,02,25,15.40
2015,07,04,02,26,15.40
2015,07,04,02,27,15.40
2015,07,04,02,28,15.40
2015,07,04,02,29,15.30
2015,07,04,02,30,15.30
2015,07,04,02,31,15.30
2015,07,04,02,32,15.30
2015,07,04,02,33,15.30
2015,07,04,02,34,15.20
2015,07,04,02,35,15.20
2015,07,04,02,36,15.20
2015,07,04,02,37,15.20
2015,07,04,02,38,15.20
2015,07,04,02,39,15.10
2015,07,04,02,40,15.10
2015,07,04,02,41,15.10
2015,07,04,02,42,15.10
2015,07,04,02,43,15.10
2015,07,04,02,44,15.00
2015,07,04,02,45,15.00
2015,07,04,02,46,14.90
2015,07,04,02,47,14.90
2015,07,04,02,48,14.90
2015,07,04,02,49,14.90
2015,07,04,02,50,14.80
2015,07,04,02,51,14.80
2015,07,04,02,52,14.90
2015,07,04,02,53,14.90
2015,07,04,02,54,14.90
2015,07,04,02,55,14.80
2015,07,04,02,56,14.80
2015,07,04,02,57,14.80
2015,07,04,02,58,14.80
2015,07,04,02,59,14.80
2015,07,04,03,00,14.70
2015,07,04,03,01,14.70
2015,07,04,03,02,14.70
2015,07,04,03,03,14.60
2015,07,04,03,04,14.60
2015,07,04,03,05,14.60
2015,07,04,03,06,14.60
2015,07,04,03,07,14.60
2015,07,04,03,08,14.50
2015,07,04,03,09,14.50
2015,07,04,03,10,14.50
2015,07,04,03,11,14.50
2015,07,04,03,12,14.50
2015,07,04,03,13,14.40
2015,07,04,03,14,14.40
2015,07,04,03,15,14.30
2015,07,04,03,16,14.30
2015,07,04,03,17,14.30
2015,07,04,03,18,14.30
2015,07,04,03,19,14.30
2015,07,04,03,20,14.20
2015,07,04,03,21,14.20
2015,07,04,03,22,14.20
2015,07,04,03,23,14.20
2015,07,04,03,24,14.10
2015,07,04,03,25,14.10
2015,07,04,03,26,14.00
2015,07,04,03,27,14.00
2015,07,04,03,28,13.90
2015,07,04,03,29,13.90
2015,07,04,03,30,13.90
2015,07,04,03,31,13.90
2015,07,04,03,32,13.90
2015,07,04,03,33,13.90
2015,07,04,03,34,13.90
2015,07,04,03,35,13.90
2015,07,04,03,36,13.90
2015,07,04,03,37,13.80
2015,07,04,03,38,13.80
2015,07,04,03,39,13.80
2015,07,04,03,40,13.80
2015,07,04,03,41,13.70
2015,07,04,03,42,13.70
2015,07,04,03,43,13.70
2015,07,04,03,44,13.70
2015,07,04,03,45,13.60
2015,07,04,03,46,13.60
2015,07,04,03,47,13.60
2015,07,04,03,48,13.60
2015,07,04,03,49,13.60
2015,07,04,03,50,13.60
2015,07,04,03,51,13.50
2015,07,04,03,52,13.50
2015,07,04,03,53,13.50
2015,07,04,03,54,13.40
2015,07,04,03,55,13.40
2015,07,04,03,56,13.40
2015,07,04,03,57,13.40
2015,07,04,03,58,13.50
2015,07,04,03,59,13.60
2015,07,04,04,00,13.60
2015,07,04,04,01,13.60
2015,07,04,04,02,13.60
2015,07,04,04,03,13.60
2015,07,04,04,04,13.60
2015,07,04,04,05,13.70
2015,07,04,04,06,13.70
2015,07,04,04,07,13.70
2015,07,04,04,08,13.70
2015,07,04,04,09,13.60
2015,07,04,04,10,13.60
2015,07,04,04,11,13.60
2015,07,04,04,12,13.60
2015,07,04,04,13,13.60
2015,07,04,04,14,13.50
2015,07,04,04,15,13.50
2015,07,04,04,16,13.50
2015,07,04,04,17,13.40
2015,07,04,04,18,13.40
2015,07,04,04,19,13.40
2015,07,04,04,20,13.30
2015,07,04,04,21,13.30
2015,07,04,04,22,13.30
2015,07,04,04,23,13.30
2015,07,04,04,24,13.20
2015,07,04,04,25,13.20
2015,07,04,04,26,13.20
2015,07,04,04,27,13.10
2015,07,04,04,28,13.10
2015,07,04,04,29,13.10
2015,07,04,04,30,13.00
2015,07,04,04,31,13.00
2015,07,04,04,32,13.00
2015,07,04,04,33,13.00
2015,07,04,04,34,13.10
2015,07,04,04,35,13.10
2015,07,04,04,36,13.10
2015,07,04,04,37,13.10
2015,07,04,04,38,13.10
2015,07,04,04,39,13.10
2015,07,04,04,40,13.10
2015,07,04,04,41,13.10
2015,07,04,04,42,13.10
2015,07,04,04,43,13.10
2015,07,04,04,44,13.20
2015,07,04,04,45,13.20
2015,07,04,04,46,13.20
2015,07,04,04,47,13.20
2015,07,04,04,48,13.20
2015,07,04,04,49,13.20
2015,07,04,04,50,13.20
2015,07,04,04,51,13.30
2015,07,04,04,52,13.30
2015,07,04,04,53,13.30
2015,07,04,04,54,13.30
2015,07,04,04,55,13.30
2015,07,04,04,56,13.30
2015,07,04,04,57,13.30
2015,07,04,04,58,13.30
2015,07,04,04,59,13.30
2015,07,04,05,00,13.30
2015,07,04,05,01,13.40
2015,07,04,05,02,13.40
2015,07,04,05,03,13.40
2015,07,04,05,04,13.40
2015,07,04,05,05,13.40
2015,07,04,05,06,13.50
2015,07,04,05,07,13.50
2015,07,04,05,08,13.50
2015,07,04,05,09,13.50
2015,07,04,05,10,13.50
2015,07,04,05,11,13.40
2015,07,04,05,12,13.40
2015,07,04,05,13,13.40
2015,07,04,05,14,13.40
2015,07,04,05,15,13.40
2015,07,04,05,16,13.40
2015,07,04,05,17,13.40
2015,07,04,05,18,13.40
2015,07,04,05,19,13.40
2015,07,04,05,20,13.40
2015,07,04,05,21,13.40
2015,07,04,05,22,13.40
2015,07,04,05,23,13.40
2015,07,04,05,24,13.30
2015,07,04,05,25,13.30
2015,07,04,05,26,13.30
2015,07,04,05,27,13.30
2015,07,04,05,28,13.20
2015,07,04,05,29,13.20
2015,07,04,05,30,13.20
2015,07,04,05,31,13.20
2015,07,04,05,32,13.20
2015,07,04,05,33,13.10
2015,07,04,05,34,13.10
2015,07,04,05,35,13.10
2015,07,04,05,36,13.10
2015,07,04,05,37,13.10
2015,07,04,05,38,13.10
2015,07,04,05,39,13.10
2015,07,04,05,40,13.10
2015,07,04,05,41,13.10
2015,07,04,05,42,13.10
2015,07,04,05,43,13.10
2015,07,04,05,44,13.20
2015,07,04,05,45,13.20
2015,07,04,05,46,13.20
2015,07,04,05,47,13.30
2015,07,04,05,48,13.30
2015,07,04,05,49,13.30
2015,07,04,05,50,13.40
2015,07,04,05,51,13.40
2015,07,04,05,52,13.40
2015,07,04,05,53,13.40
2015,07,04,05,54,13.50
2015,07,04,05,55,13.50
2015,07,04,05,56,13.50
2015,07,04,05,57,13.60
2015,07,04,05,58,13.60
2015,07,04,05,59,13.60
2015,07,04,06,00,13.70
2015,07,04,06,01,13.70
2015,07,04,06,02,13.80
2015,07,04,06,03,13.80
2015,07,04,06,04,13.90
2015,07,04,06,05,14.00
2015,07,04,06,06,14.00
2015,07,04,06,07,14.10
2015,07,04,06,08,14.10
2015,07,04,06,09,14.20
2015,07,04,06,10,14.20
2015,07,04,06,11,14.20
2015,07,04,06,12,14.20
2015,07,04,06,13,14.20
2015,07,04,06,14,14.20
2015,07,04,06,15,14.20
2015,07,04,06,16,14.30
2015,07,04,06,17,14.30
2015,07,04,06,18,14.30
2015,07,04,06,19,14.30
2015,07,04,06,20,14.30
2015,07,04,06,21,14.30
2015,07,04,06,22,14.40
2015,07,04,06,23,14.40
2015,07,04,06,24,14.40
2015,07,04,06,25,14.50
2015,07,04,06,26,14.50
2015,07,04,06,27,14.50
2015,07,04,06,28,14.60
2015,07,04,06,29,14.60
2015,07,04,06,30,14.60
2015,07,04,06,31,14.70
2015,07,04,06,32,14.70
2015,07,04,06,33,14.70
2015,07,04,06,34,14.70
2015,07,04,06,35,14.80
2015,07,04,06,36,14.80
2015,07,04,06,37,14.80
2015,07,04,06,38,14.90
2015,07,04,06,39,14.90
2015,07,04,06,40,14.90
2015,07,04,06,41,14.90
2015,07,04,06,42,15.00
2015,07,04,06,43,15.00
2015,07,04,06,44,15.10
2015,07,04,06,45,15.10
2015,07,04,06,46,15.10
2015,07,04,06,47,15.10
2015,07,04,06,48,15.20
2015,07,04,06,49,15.20
2015,07,04,06,50,15.30
2015,07,04,06,51,15.30
2015,07,04,06,52,15.40
2015,07,04,06,53,15.50
2015,07,04,06,54,15.50
2015,07,04,06,55,15.60
2015,07,04,06,56,15.70
2015,07,04,06,57,15.80
2015,07,04,06,58,15.80
2015,07,04,06,59,15.90
2015,07,04,07,00,16.00
2015,07,04,07,01,16.10
2015,07,04,07,02,16.20
2015,07,04,07,03,16.30
2015,07,04,07,04,16.40
2015,07,04,07,05,16.50
2015,07,04,07,06,16.50
2015,07,04,07,07,16.60
2015,07,04,07,08,16.70
2015,07,04,07,09,16.80
2015,07,04,07,10,16.80
2015,07,04,07,11,16.90
2015,07,04,07,12,16.90
2015,07,04,07,13,16.90
2015,07,04,07,14,16.90
2015,07,04,07,15,16.90
2015,07,04,07,16,16.90
2015,07,04,07,17,16.90
2015,07,04,07,18,16.90
2015,07,04,07,19,16.90
2015,07,04,07,20,16.90
2015,07,04,07,21,17.00
2015,07,04,07,22,17.00
2015,07,04,07,23,17.10
2015,07,04,07,24,17.10
2015,07,04,07,25,17.10
2015,07,04,07,26,17.20
2015,07,04,07,27,17.20
2015,07,04,07,28,17.30
2015,07,04,07,29,17.30
2015,07,04,07,30,17.40
2015,07,04,07,31,17.50
2015,07,04,07,32,17.60
2015,07,04,07,33,17.60
2015,07,04,07,34,17.60
2015,07,04,07,35,17.70
2015,07,04,07,36,17.70
2015,07,04,07,37,17.70
2015,07,04,07,38,17.70
2015,07,04,07,39,17.70
2015,07,04,07,40,17.80
2015,07,04,07,41,17.80
2015,07,04,07,42,17.90
2015,07,04,07,43,17.90
2015,07,04,07,44,18.00
2015,07,04,07,45,18.10
2015,07,04,07,46,18.20
2015,07,04,07,47,18.20
2015,07,04,07,48,18.30
2015,07,04,07,49,18.30
2015,07,04,07,50,18.40
2015,07,04,07,51,18.40
2015,07,04,07,52,18.40
2015,07,04,07,53,18.50
2015,07,04,07,54,18.50
2015,07,04,07,55,18.50
2015,07,04,07,56,18.60
2015,07,04,07,57,18.60
2015,07,04,07,58,18.60
2015,07,04,07,59,18.60
2015,07,04,08,00,18.60
2015,07,04,08,01,18.60
2015,07,04,08,02,18.60
2015,07,04,08,03,18.60
2015,07,04,08,04,18.60
2015,07,04,08,05,18.60
2015,07,04,08,06,18.60
2015,07,04,08,07,18.60
2015,07,04,08,08,18.60
2015,07,04,08,09,18.60
2015,07,04,08,10,18.60
2015,07,04,08,11,18.70
2015,07,04,08,12,18.70
2015,07,04,08,13,18.70
2015,07,04,08,14,18.70
2015,07,04,08,15,18.80
2015,07,04,08,16,18.80
2015,07,04,08,17,18.90
2015,07,04,08,18,18.90
2015,07,04,08,19,18.90
2015,07,04,08,20,18.90
2015,07,04,08,21,18.90
2015,07,04,08,22,19.00
2015,07,04,08,23,19.00
2015,07,04,08,24,19.00
2015,07,04,08,25,19.00
2015,07,04,08,26,19.00
2015,07,04,08,27,19.10
2015,07,04,08,28,19.10
2015,07,04,08,29,19.00
2015,07,04,08,30,18.80
2015,07,04,08,31,18.80
2015,07,04,08,32,18.80
2015,07,04,08,33,18.70
2015,07,04,08,34,18.70
2015,07,04,08,35,18.70
2015,07,04,08,36,18.70
2015,07,04,08,37,18.70
2015,07,04,08,38,18.80
2015,07,04,08,39,18.80
2015,07,04,08,40,18.90
2015,07,04,08,41,19.00
2015,07,04,08,42,19.10
2015,07,04,08,43,19.20
2015,07,04,08,44,19.30
2015,07,04,08,45,19.30
2015,07,04,08,46,19.30
2015,07,04,08,47,19.20
2015,07,04,08,48,19.20
2015,07,04,08,49,19.20
2015,07,04,08,50,19.20
2015,07,04,08,51,19.20
2015,07,04,08,52,19.30
2015,07,04,08,53,19.30
2015,07,04,08,54,19.40
2015,07,04,08,55,19.40
2015,07,04,08,56,19.50
2015,07,04,08,57,19.50
2015,07,04,08,58,19.50
2015,07,04,08,59,19.50
2015,07,04,09,00,19.50
2015,07,04,09,01,19.60
2015,07,04,09,02,19.60
2015,07,04,09,03,19.60
2015,07,04,09,04,19.70
2015,07,04,09,05,19.70
2015,07,04,09,06,19.80
2015,07,04,09,07,19.80
2015,07,04,09,08,19.90
2015,07,04,09,09,20.00
2015,07,04,09,10,20.10
2015,07,04,09,11,20.30
2015,07,04,09,12,20.40
2015,07,04,09,13,20.50
2015,07,04,09,14,20.60
2015,07,04,09,15,20.60
2015,07,04,09,16,20.60
2015,07,04,09,17,20.70
2015,07,04,09,18,20.70
2015,07,04,09,19,20.70
2015,07,04,09,20,20.70
2015,07,04,09,21,20.70
2015,07,04,09,22,20.70
2015,07,04,09,23,20.70
2015,07,04,09,24,20.70
2015,07,04,09,25,20.70
2015,07,04,09,26,20.80
2015,07,04,09,27,20.90
2015,07,04,09,28,20.90
2015,07,04,09,29,21.00
2015,07,04,09,30,21.10
2015,07,04,09,31,21.10
2015,07,04,09,32,21.10
2015,07,04,09,33,21.20
2015,07,04,09,34,21.20
2015,07,04,09,35,21.30
2015,07,04,09,36,21.40
2015,07,04,09,37,21.50
2015,07,04,09,38,21.60
2015,07,04,09,39,21.60
2015,07,04,09,40,21.70
2015,07,04,09,41,21.80
2015,07,04,09,42,21.80
2015,07,04,09,43,21.80
2015,07,04,09,44,21.80
2015,07,04,09,45,21.90
2015,07,04,09,46,21.90
2015,07,04,09,47,22.00
2015,07,04,09,48,22.10
2015,07,04,09,49,22.20
2015,07,04,09,50,22.30
2015,07,04,09,51,22.50
2015,07,04,09,52,22.60
2015,07,04,09,53,22.70
2015,07,04,09,54,22.70
2015,07,04,09,55,22.70
2015,07,04,09,56,22.70
2015,07,04,09,57,22.60
2015,07,04,09,58,22.60
2015,07,04,09,59,22.70
2015,07,04,10,00,22.70
2015,07,04,10,01,22.70
2015,07,04,10,02,22.70
2015,07,04,10,03,22.70
2015,07,04,10,04,22.70
2015,07,04,10,05,22.70
2015,07,04,10,06,22.70
2015,07,04,10,07,22.70
2015,07,04,10,08,22.70
2015,07,04,10,09,22.70
2015,07,04,10,10,22.70
2015,07,04,10,11,22.70
2015,07,04,10,12,22.80
2015,07,04,10,13,22.90
2015,07,04,10,14,22.90
2015,07,04,10,15,23.00
2015,07,04,10,16,23.10
2015,07,04,10,17,23.10
2015,07,04,10,18,23.20
2015,07,04,10,19,23.30
2015,07,04,10,20,23.30
2015,07,04,10,21,23.40
2015,07,04,10,22,23.40
2015,07,04,10,23,23.40
2015,07,04,10,24,23.50
2015,07,04,10,25,23.50
2015,07,04,10,26,23.50
2015,07,04,10,27,23.60
2015,07,04,10,28,23.70
2015,07,04,10,29,23.80
2015,07,04,10,30,23.80
2015,07,04,10,31,23.90
2015,07,04,10,32,24.00
2015,07,04,10,33,24.10
2015,07,04,10,34,24.20
2015,07,04,10,35,24.20
2015,07,04,10,36,24.30
2015,07,04,10,37,24.30
2015,07,04,10,38,24.40
2015,07,04,10,39,24.40
2015,07,04,10,40,24.50
2015,07,04,10,41,24.50
2015,07,04,10,42,24.60
2015,07,04,10,43,24.70
2015,07,04,10,44,24.70
2015,07,04,10,45,24.60
2015,07,04,10,46,24.60
2015,07,04,10,47,24.70
2015,07,04,10,48,24.70
2015,07,04,10,49,24.90
2015,07,04,10,50,25.00
2015,07,04,10,51,25.10
2015,07,04,10,52,25.10
2015,07,04,10,53,25.20
2015,07,04,10,54,25.20
2015,07,04,10,55,25.30
2015,07,04,10,56,25.30
2015,07,04,10,57,25.30
2015,07,04,10,58,25.40
2015,07,04,10,59,25.40
2015,07,04,11,00,25.50
2015,07,04,11,01,25.50
2015,07,04,11,02,25.60
2015,07,04,11,03,25.70
2015,07,04,11,04,25.80
2015,07,04,11,05,25.80
2015,07,04,11,06,25.80
2015,07,04,11,07,25.80
2015,07,04,11,08,25.80
2015,07,04,11,09,25.80
2015,07,04,11,10,25.90
2015,07,04,11,11,26.00
2015,07,04,11,12,26.10
2015,07,04,11,13,26.20
2015,07,04,11,14,26.30
2015,07,04,11,15,26.30
2015,07,04,11,16,26.20
2015,07,04,11,17,26.20
2015,07,04,11,18,26.20
2015,07,04,11,19,26.20
2015,07,04,11,20,26.30
2015,07,04,11,21,26.30
2015,07,04,11,22,26.30
2015,07,04,11,23,26.30
2015,07,04,11,24,26.30
2015,07,04,11,25,26.20
2015,07,04,11,26,26.20
2015,07,04,11,27,26.20
2015,07,04,11,28,26.10
2015,07,04,11,29,26.10
2015,07,04,11,30,26.10
2015,07,04,11,31,26.20
2015,07,04,11,32,26.30
2015,07,04,11,33,26.30
2015,07,04,11,34,26.40
2015,07,04,11,35,26.50
2015,07,04,11,36,26.50
2015,07,04,11,37,26.60
2015,07,04,11,38,26.60
2015,07,04,11,39,26.60
2015,07,04,11,40,26.70
2015,07,04,11,41,26.70
2015,07,04,11,42,26.80
2015,07,04,11,43,26.80
2015,07,04,11,44,26.80
2015,07,04,11,45,26.70
2015,07,04,11,46,26.70
2015,07,04,11,47,26.70
2015,07,04,11,48,26.80
2015,07,04,11,49,26.90
2015,07,04,11,50,26.90
2015,07,04,11,51,26.90
2015,07,04,11,52,26.90
2015,07,04,11,53,26.80
2015,07,04,11,54,26.80
2015,07,04,11,55,26.90
2015,07,04,11,56,27.00
2015,07,04,11,57,27.10
2015,07,04,11,58,27.10
2015,07,04,11,59,27.20
2015,07,04,12,00,27.30
2015,07,04,12,01,27.30
2015,07,04,12,02,27.30
2015,07,04,12,03,27.20
2015,07,04,12,04,27.10
2015,07,04,12,05,27.00
2015,07,04,12,06,26.90
2015,07,04,12,07,26.90
2015,07,04,12,08,27.00
2015,07,04,12,09,27.00
2015,07,04,12,10,27.10
2015,07,04,12,11,27.20
2015,07,04,12,12,27.30
2015,07,04,12,13,27.20
2015,07,04,12,14,27.10
2015,07,04,12,15,27.10
2015,07,04,12,16,27.10
2015,07,04,12,17,27.10
2015,07,04,12,18,27.10
2015,07,04,12,19,27.10
2015,07,04,12,20,27.10
2015,07,04,12,21,27.10
2015,07,04,12,22,27.00
2015,07,04,12,23,26.90
2015,07,04,12,24,26.90
2015,07,04,12,25,26.90
2015,07,04,12,26,27.00
2015,07,04,12,27,27.10
2015,07,04,12,28,27.20
2015,07,04,12,29,27.30
2015,07,04,12,30,27.30
2015,07,04,12,31,27.40
2015,07,04,12,32,27.40
2015,07,04,12,33,27.40
2015,07,04,12,34,27.50
2015,07,04,12,35,27.50
2015,07,04,12,36,27.60
2015,07,04,12,37,27.60
2015,07,04,12,38,27.70
2015,07,04,12,39,27.60
2015,07,04,12,40,27.40
2015,07,04,12,41,27.40
2015,07,04,12,42,27.40
2015,07,04,12,43,27.40
2015,07,04,12,44,27.40
2015,07,04,12,45,27.50
2015,07,04,12,46,27.50
2015,07,04,12,47,27.60
2015,07,04,12,48,27.60
2015,07,04,12,49,27.70
2015,07,04,12,50,27.60
2015,07,04,12,51,27.60
2015,07,04,12,52,27.50
2015,07,04,12,53,27.60
2015,07,04,12,54,27.60
2015,07,04,12,55,27.70
2015,07,04,12,56,27.80
2015,07,04,12,57,27.80
2015,07,04,12,58,27.80
2015,07,04,12,59,27.80
2015,07,04,13,00,27.80
2015,07,04,13,01,27.80
2015,07,04,13,02,27.80
2015,07,04,13,03,27.80
2015,07,04,13,04,27.80
2015,07,04,13,05,27.80
2015,07,04,13,06,27.80
2015,07,04,13,07,27.90
2015,07,04,13,08,27.90
2015,07,04,13,09,27.90
2015,07,04,13,10,27.90
2015,07,04,13,11,27.90
2015,07,04,13,12,27.80
2015,07,04,13,13,27.70
2015,07,04,13,14,27.60
2015,07,04,13,15,27.40
2015,07,04,13,16,27.30
2015,07,04,13,17,27.30
2015,07,04,13,18,27.30
2015,07,04,13,19,27.40
2015,07,04,13,20,27.50
2015,07,04,13,21,27.60
2015,07,04,13,22,27.70
2015,07,04,13,23,27.70
2015,07,04,13,24,27.70
2015,07,04,13,25,27.70
2015,07,04,13,26,27.70
2015,07,04,13,27,27.60
2015,07,04,13,28,27.50
2015,07,04,13,29,27.50
2015,07,04,13,30,27.50
2015,07,04,13,31,27.60
2015,07,04,13,32,27.70
2015,07,04,13,33,27.80
2015,07,04,13,34,27.80
2015,07,04,13,35,27.90
2015,07,04,13,36,27.90
2015,07,04,13,37,28.00
2015,07,04,13,38,28.00
2015,07,04,13,39,27.90
2015,07,04,13,40,27.90
2015,07,04,13,41,27.90
2015,07,04,13,42,28.00
2015,07,04,13,43,28.10
2015,07,04,13,44,28.30
2015,07,04,13,45,28.40
2015,07,04,13,46,28.50
2015,07,04,13,47,28.60
2015,07,04,13,48,28.80
2015,07,04,13,49,28.90
2015,07,04,13,50,29.00
2015,07,04,13,51,29.10
2015,07,04,13,52,29.30
2015,07,04,13,53,29.40
2015,07,04,13,54,29.50
2015,07,04,13,55,29.50
2015,07,04,13,56,29.60
2015,07,04,13,57,29.60
2015,07,04,13,58,29.50
2015,07,04,13,59,29.40
2015,07,04,14,00,29.30
2015,07,04,14,01,29.30
2015,07,04,14,02,29.40
2015,07,04,14,03,29.50
2015,07,04,14,04,29.60
2015,07,04,14,05,29.60
2015,07,04,14,06,29.60
2015,07,04,14,07,29.50
2015,07,04,14,08,29.40
2015,07,04,14,09,29.30
2015,07,04,14,10,29.20
2015,07,04,14,11,29.20
2015,07,04,14,12,29.10
2015,07,04,14,13,29.20
2015,07,04,14,14,29.30
2015,07,04,14,15,29.40
2015,07,04,14,16,29.40
2015,07,04,14,17,29.40
2015,07,04,14,18,29.40
2015,07,04,14,19,29.40
2015,07,04,14,20,29.40
2015,07,04,14,21,29.40
2015,07,04,14,22,29.40
2015,07,04,14,23,29.40
2015,07,04,14,24,29.40
2015,07,04,14,25,29.40
2015,07,04,14,26,29.50
2015,07,04,14,27,29.50
2015,07,04,14,28,29.60
2015,07,04,14,29,29.60
2015,07,04,14,30,29.50
2015,07,04,14,31,29.40
2015,07,04,14,32,29.40
2015,07,04,14,33,29.40
2015,07,04,14,34,29.40
2015,07,04,14,35,29.40
2015,07,04,14,36,29.50
2015,07,04,14,37,29.50
2015,07,04,14,38,29.50
2015,07,04,14,39,29.50
2015,07,04,14,40,29.50
2015,07,04,14,41,29.40
2015,07,04,14,42,29.40
2015,07,04,14,43,29.30
2015,07,04,14,44,29.20
2015,07,04,14,45,29.20
2015,07,04,14,46,29.20
2015,07,04,14,47,29.20
2015,07,04,14,48,29.20
2015,07,04,14,49,29.30
2015,07,04,14,50,29.30
2015,07,04,14,51,29.40
2015,07,04,14,52,29.40
2015,07,04,14,53,29.30
2015,07,04,14,54,29.30
2015,07,04,14,55,29.20
2015,07,04,14,56,29.20
2015,07,04,14,57,29.20
2015,07,04,14,58,29.20
2015,07,04,14,59,29.20
2015,07,04,15,00,29.30
2015,07,04,15,01,29.30
2015,07,04,15,02,29.40
2015,07,04,15,03,29.50
2015,07,04,15,04,29.70
2015,07,04,15,05,29.80
2015,07,04,15,06,29.90
2015,07,04,15,07,29.90
2015,07,04,15,08,30.00
2015,07,04,15,09,30.00
2015,07,04,15,10,30.10
2015,07,04,15,11,30.10
2015,07,04,15,12,30.20
2015,07,04,15,13,30.20
2015,07,04,15,14,30.20
2015,07,04,15,15,30.20
2015,07,04,15,16,30.20
2015,07,04,15,17,30.20
2015,07,04,15,18,30.20
2015,07,04,15,19,30.10
2015,07,04,15,20,30.10
2015,07,04,15,21,30.10
2015,07,04,15,22,30.00
2015,07,04,15,23,30.00
2015,07,04,15,24,30.10
2015,07,04,15,25,30.10
2015,07,04,15,26,30.20
2015,07,04,15,27,30.20
2015,07,04,15,28,30.30
2015,07,04,15,29,30.30
2015,07,04,15,30,30.30
2015,07,04,15,31,30.30
2015,07,04,15,32,30.40
2015,07,04,15,33,30.40
2015,07,04,15,34,30.40
2015,07,04,15,35,30.30
2015,07,04,15,36,30.20
2015,07,04,15,37,30.00
2015,07,04,15,38,30.00
2015,07,04,15,39,29.90
2015,07,04,15,40,30.00
2015,07,04,15,41,30.10
2015,07,04,15,42,30.10
2015,07,04,15,43,30.10
2015,07,04,15,44,30.10
2015,07,04,15,45,30.10
2015,07,04,15,46,29.90
2015,07,04,15,47,29.80
2015,07,04,15,48,29.80
2015,07,04,15,49,29.80
2015,07,04,15,50,29.80
2015,07,04,15,51,29.90
2015,07,04,15,52,30.00
2015,07,04,15,53,30.10
2015,07,04,15,54,30.20
2015,07,04,15,55,30.30
2015,07,04,15,56,30.30
2015,07,04,15,57,30.40
2015,07,04,15,58,30.40
2015,07,04,15,59,30.40
2015,07,04,16,00,30.50
2015,07,04,16,01,30.60
2015,07,04,16,02,30.60
2015,07,04,16,03,30.70
2015,07,04,16,04,30.80
2015,07,04,16,05,30.90
2015,07,04,16,06,31.00
2015,07,04,16,07,31.00
2015,07,04,16,08,31.10
2015,07,04,16,09,31.00
2015,07,04,16,10,31.00
2015,07,04,16,11,30.90
2015,07,04,16,12,31.00
2015,07,04,16,13,31.00
2015,07,04,16,14,31.10
2015,07,04,16,15,31.10
2015,07,04,16,16,31.00
2015,07,04,16,17,30.90
2015,07,04,16,18,30.90
2015,07,04,16,19,31.00
2015,07,04,16,20,31.00
2015,07,04,16,21,31.00
2015,07,04,16,22,31.00
2015,07,04,16,23,31.00
2015,07,04,16,24,30.90
2015,07,04,16,25,30.90
2015,07,04,16,26,30.80
2015,07,04,16,27,30.80
2015,07,04,16,28,30.80
2015,07,04,16,29,30.80
2015,07,04,16,30,30.70
2015,07,04,16,31,30.70
2015,07,04,16,32,30.70
2015,07,04,16,33,30.70
2015,07,04,16,34,30.70
2015,07,04,16,35,30.70
2015,07,04,16,36,30.70
2015,07,04,16,37,30.70
2015,07,04,16,38,30.70
2015,07,04,16,39,30.70
2015,07,04,16,40,30.70
2015,07,04,16,41,30.70
2015,07,04,16,42,30.70
2015,07,04,16,43,30.70
2015,07,04,16,44,30.70
2015,07,04,16,45,30.60
2015,07,04,16,46,30.60
2015,07,04,16,47,30.60
2015,07,04,16,48,30.60
2015,07,04,16,49,30.60
2015,07,04,16,50,30.60
2015,07,04,16,51,30.60
2015,07,04,16,52,30.60
2015,07,04,16,53,30.60
2015,07,04,16,54,30.60
2015,07,04,16,55,30.60
2015,07,04,16,56,30.60
2015,07,04,16,57,30.60
2015,07,04,16,58,30.60
2015,07,04,16,59,30.60
2015,07,04,17,00,30.60
2015,07,04,17,01,30.60
2015,07,04,17,02,30.60
2015,07,04,17,03,30.50
2015,07,04,17,04,30.60
2015,07,04,17,05,30.60
2015,07,04,17,06,30.60
2015,07,04,17,07,30.60
2015,07,04,17,08,30.70
2015,07,04,17,09,30.70
2015,07,04,17,10,30.80
2015,07,04,17,11,30.80
2015,07,04,17,12,30.80
2015,07,04,17,13,30.80
2015,07,04,17,14,30.80
2015,07,04,17,15,30.80
2015,07,04,17,16,30.80
2015,07,04,17,17,30.90
2015,07,04,17,18,30.90
2015,07,04,17,19,30.90